Location: Mahannah Oil Field
(37.4664°N, 96.6003°W)
Time: 10:14:06
(UTC+00:00)

Transit 2A Rocket - Pass Details

Date: 29 January 2021
Orbit: 594 x 909 km, 66.7° (Epoch: 03 March)

Event Time Altitude Azimuth Distance (km) Brightness Sun altitude
Rises 17:23:55 0° 218° (SW) 3,367 8.7 32.0°
Reaches altitude 10° 17:26:30 10° 223° (SW) 2,391 8.0 32.2°
Maximum altitude 17:31:52 54° 300° (WNW) 922 5.6 32.5°
Drops below altitude 10° 17:36:47 10° 18° (NNE) 2,195 7.1 32.9°
Sets 17:39:05 0° 23° (NNE) 3,068 7.7 33.0°
